Hourly Data Report for June 12, 2012

All times are specified in Local Standard Time (LST). Add 1 hour to adjust for Daylight Saving Time where and when it is observed.

MONCTON INTL A
NEW BRUNSWICK

46°06'44.000" N
64°40'43.000" W
70.70 m
8103201
71705
YQM

Download Data

Hourly Data (June 2012)
Hourly Data Report for June 12, 2012
Temp Definition
°C
Dew Point Temp Definition
°C
Rel Hum Definition
%
Wind Dir Definition
10's deg

Wind Spd Definition
km/h
Visibility Definition
km
Stn Press Definition
kPa
Hmdx Definition


Wind Chill Definition


Weather Definition


TIME
00:00 Legend Double Dagger 10.5 6.7 77 15 11 10.0 101.38     LegendNANA
01:00 Legend Double Dagger 9.4 7.0 85 19 9 10.0 101.35     LegendNANA
02:00 Legend Double Dagger 9.0 7.3 89 17 7 10.0 101.37     Clear
03:00 Legend Double Dagger 9.1 7.7 91 16 11 10.0 101.33     LegendNANA
04:00 Legend Double Dagger 8.6 7.5 93 16 9 10.0 101.31     LegendNANA
05:00 Legend Double Dagger 8.7 8.0 95 16 13 10.0 101.32     Mostly Cloudy
06:00 Legend Double Dagger 10.1 8.9 92 16 9 10.0 101.34     LegendNANA
07:00 Legend Double Dagger 13.6 10.4 81 17 12 10.0 101.33     LegendNANA
08:00 Legend Double Dagger 16.8 10.9 68 19 13 10.0 101.30     Mostly Cloudy
09:00 Legend Double Dagger 19.1 11.5 61 15 15 10.0 101.22     LegendNANA
10:00 Legend Double Dagger 20.5 13.6 64 13 13 10.0 101.17     LegendNANA
11:00 Legend Double Dagger 22.0 13.5 58 12 18 10.0 101.13 25   Mainly Clear
12:00 Legend Double Dagger 23.4 11.6 47 16 23 10.0 101.05 25   LegendNANA
13:00 Legend Double Dagger 22.9 9.8 43 14 33 10.0 101.00     LegendNANA
14:00 Legend Double Dagger 23.8 10.7 43 17 24 10.0 100.95 25   Mainly Clear
15:00 Legend Double Dagger 24.4 11.2 43 20 22 10.0 100.92 26   LegendNANA
16:00 Legend Double Dagger 24.1 9.9 40 18 27 10.0 100.86 25   LegendNANA
17:00 Legend Double Dagger 23.9 10.0 41 22 22 10.0 100.82 25   Mainly Clear
18:00 Legend Double Dagger 22.8 9.7 43 19 22 10.0 100.79     LegendNANA
19:00 Legend Double Dagger 19.6 10.2 54 14 16 10.0 100.81     LegendNANA
20:00 Legend Double Dagger 15.6 10.0 69 13 12 10.0 100.83     Mostly Cloudy
21:00 Legend Double Dagger 13.6 9.1 74 15 12 10.0 100.88     LegendNANA
22:00 Legend Double Dagger 12.7 8.2 74 14 10 10.0 100.89     LegendNANA
23:00 Legend Double Dagger 10.9 7.1 77 14 8 10.0 100.90     Mainly Clear

Notes on Data Quality.

Legend

  • E = Estimated
  • M = Missing
  • NA = Not Available
  • ‡ = Partner data that is not subject to review by the National Climate Archives
Date modified: